Home > Weather > Kawasaki > Past weeks

Flag for Japan Weather for the Past 2 Weeks in Kawasaki, Japan

Now
41 °F

Broken clouds.


Feels Like: 35 °F
Forecast: 38 / 55 °F
Wind: 10 mph from North

Location: Tokyo International Airport

Current Time: Feb 8, 2016 at 10:02:22 AM

Latest Report: Feb 8, 2016 at 9:30 AM


Visibility: N/A

Pressure: 30.12 "Hg

Humidity: 57%

Dew point: 27 °F

Location of KawasakiLocation

Historic Weather in Kawasaki — Graph

°F

Kawasaki Temperature Yesterday

Maximum temperature yesterday: 46 °F (at 12:00 PM)
Minimum temperature yesterday: 37 °F (at 2:30 AM)
Average temperature yesterday: 42 °F

High & Low Weather Summary for the Past Weeks

 TemperatureHumidityPressure
High54 °F (Jan 27, 12:30 PM)100% (Jan 30, 2:00 AM)30.33 "Hg (Jan 30, 2:00 AM)
Low28 °F (Jan 25, 5:30 AM)14% (Jan 24, 2:00 PM)29.50 "Hg (Jan 24, 1:30 PM)
Average43 °F58%30.07 "Hg
* Reported Jan 24 8:00 AM — Feb 8 8:00 AM, Kawasaki, Weather by CustomWeather, © 2016

Note: Actual official high and low records may vary slightly from our data, if they occured in-between our weather recording intervals... More about our weather records

Advertising

Kawasaki Weather History for the Previous 24 Hours

 ConditionsComfort  
Time TempWeatherWind HumidityBarometerVisibility
8:00 AM
Mon, Feb 8
39 °FPartly sunny.13 mph61%30.12 "HgN/A
7:30 AM37 °FPartly sunny.12 mph60%30.12 "HgN/A
7:00 AM37 °FPartly sunny.14 mph65%30.12 "HgN/A
6:30 AM39 °FPassing clouds.12 mph61%30.09 "HgN/A
6:00 AM37 °FPassing clouds.13 mph60%30.09 "HgN/A
5:30 AM37 °FPassing clouds.15 mph60%30.09 "HgN/A
5:00 AM37 °FPassing clouds.14 mph60%30.09 "HgN/A
4:30 AM37 °FPassing clouds.13 mph60%30.09 "HgN/A
4:00 AM37 °FPassing clouds.13 mph60%30.09 "HgN/A
3:30 AM39 °FPassing clouds.13 mph56%30.09 "HgN/A
3:00 AM39 °FPassing clouds.12 mph56%30.09 "HgN/A
2:30 AM39 °FPassing clouds.10 mph56%30.09 "HgN/A
2:00 AM39 °FPassing clouds.10 mph56%30.09 "HgN/A
1:30 AM41 °FPassing clouds.10 mph57%30.09 "HgN/A
1:00 AM41 °FPassing clouds.9 mph57%30.09 "HgN/A
12:30 AM41 °FPassing clouds.9 mph57%30.09 "HgN/A
12:00 AM41 °FPassing clouds.12 mph61%30.09 "HgN/A
11:30 PM
Sun, Feb 7
41 °FPassing clouds.12 mph61%30.09 "HgN/A
11:00 PM43 °FPassing clouds.14 mph57%30.09 "HgN/A
10:30 PM43 °FPassing clouds.16 mph61%30.09 "HgN/A
10:00 PM43 °FPassing clouds.15 mph57%30.09 "HgN/A
9:30 PM43 °FPassing clouds.15 mph61%30.09 "HgN/A
9:00 PM43 °FPartly cloudy.14 mph61%30.09 "HgN/A
8:30 PM43 °FPartly cloudy.16 mph61%30.09 "HgN/A
8:00 PM43 °FPartly cloudy.14 mph61%30.07 "HgN/A
7:30 PM43 °FPassing clouds.10 mph53%30.07 "HgN/A
7:00 PM45 °FPassing clouds.8 mph25%30.07 "HgN/A
6:30 PM45 °FPassing clouds.8 mph29%30.07 "HgN/A
6:00 PM45 °FPassing clouds.13 mph31%30.04 "HgN/A
5:30 PM45 °FPassing clouds.13 mph34%30.04 "HgN/A
5:00 PM45 °FPassing clouds.13 mph34%30.01 "HgN/A
4:30 PM46 °FPassing clouds.10 mph32%30.01 "HgN/A
4:00 PM46 °FPassing clouds.10 mph25%29.98 "HgN/A
3:30 PM46 °FPassing clouds.8 mph29%29.98 "HgN/A
3:00 PM46 °FPassing clouds.6 mph29%29.98 "HgN/A
2:30 PM46 °FScattered clouds.10 mph34%29.98 "HgN/A
2:00 PM46 °FPassing clouds.12 mph29%29.95 "HgN/A
1:30 PM46 °FPassing clouds.15 mph34%29.95 "HgN/A
1:00 PM46 °FPassing clouds.14 mph34%29.95 "HgN/A
12:30 PM46 °FPassing clouds.14 mph32%29.95 "HgN/A
12:00 PM46 °FPassing clouds.16 mph32%29.95 "HgN/A
11:30 AM45 °FPassing clouds.18 mph31%29.95 "HgN/A
11:00 AM45 °FPassing clouds.17 mph42%29.98 "HgN/A
10:30 AM43 °FPassing clouds.21 mph42%29.98 "HgN/A
10:00 AM43 °FPassing clouds.20 mph42%29.98 "HgN/A
Weather by CustomWeather, © 2016

See weather overviewHow to use our weather pages